Time,TemperatureF,DewpointF,PressureIn,WindDirection,WindDirectionDegrees,WindSpeedMPH,WindSpeedGustMPH,Humidity,HourlyPrecipIn,Conditions,Clouds,dailyrainin,SoftwareType,DateUTC
2013-02-14 00:00:00,23.8,17.6,29.74,NW,322,0.0,0.0,77,0.00,BKN,,0.00,WeatherDisplay:10.37,2013-02-14 05:00:00,
2013-02-14 00:05:00,24.1,17.9,29.74,NW,322,0.0,0.0,77,0.00,BKN,,0.00,WeatherDisplay:10.37,2013-02-14 05:05:00,
2013-02-14 00:10:00,24.0,17.8,29.73,NW,322,0.0,0.0,77,0.00,OVC,,0.00,WeatherDisplay:10.37,2013-02-14 05:10:00,
2013-02-14 00:15:00,23.6,17.4,29.73,NW,322,0.0,0.0,77,0.00,OVC,,0.00,WeatherDisplay:10.37,2013-02-14 05:15:00,
2013-02-14 00:20:00,23.6,17.4,29.73,NW,322,0.0,0.0,77,0.00,OVC,,0.00,WeatherDisplay:10.37,2013-02-14 05:20:00,
2013-02-14 00:25:00,23.6,17.4,29.73,NW,322,0.0,0.0,77,0.00,OVC,,0.00,WeatherDisplay:10.37,2013-02-14 05:25:00,
2013-02-14 00:30:00,23.5,17.3,29.73,NW,322,0.0,0.0,77,0.00,OVC,,0.00,WeatherDisplay:10.37,2013-02-14 05:30:00,
2013-02-14 00:35:00,23.5,17.3,29.73,NW,322,0.0,0.0,77,0.00,OVC,,0.00,WeatherDisplay:10.37,2013-02-14 05:35:00,
2013-02-14 00:40:00,23.2,17.1,29.73,NW,322,0.0,0.0,77,0.00,OVC,,0.00,WeatherDisplay:10.37,2013-02-14 05:40:00,
2013-02-14 00:45:00,23.2,17.1,29.73,NW,322,0.0,0.0,77,0.00,OVC,,0.00,WeatherDisplay:10.37,2013-02-14 05:45:00,
2013-02-14 00:50:00,23.2,17.1,29.73,NW,322,0.0,0.0,77,0.00,OVC,,0.00,WeatherDisplay:10.37,2013-02-14 05:50:00,
2013-02-14 00:55:00,23.4,17.3,29.73,NW,322,0.0,0.0,77,0.00,OVC,,0.00,WeatherDisplay:10.37,2013-02-14 05:55:00,
2013-02-14 01:00:00,23.3,17.2,29.73,NW,322,0.0,0.0,77,0.00,OVC,,0.00,WeatherDisplay:10.37,2013-02-14 06:00:00,
2013-02-14 01:05:00,23.0,16.9,29.73,NW,322,0.0,0.0,77,0.00,OVC,,0.00,WeatherDisplay:10.37,2013-02-14 06:05:00,
2013-02-14 01:10:00,22.7,17.5,29.71,NW,322,0.0,0.0,80,0.00,OVC,,0.00,WeatherDisplay:10.37,2013-02-14 06:10:00,
2013-02-14 01:15:00,22.8,17.6,29.71,NW,322,0.0,0.0,80,0.00,OVC,,0.00,WeatherDisplay:10.37,2013-02-14 06:15:00,
2013-02-14 01:20:00,22.5,17.3,29.71,NW,322,0.0,0.0,80,0.00,OVC,,0.00,WeatherDisplay:10.37,2013-02-14 06:20:00,
2013-02-14 01:25:00,22.2,17.0,29.71,NW,322,0.0,0.0,80,0.00,OVC,,0.00,WeatherDisplay:10.37,2013-02-14 06:25:00,
2013-02-14 01:30:00,22.4,17.2,29.71,NW,322,0.0,0.0,80,0.00,OVC,,0.00,WeatherDisplay:10.37,2013-02-14 06:30:00,
2013-02-14 01:35:00,22.4,17.2,29.71,NW,322,0.0,0.0,80,0.00,OVC,,0.00,WeatherDisplay:10.37,2013-02-14 06:35:00,
2013-02-14 01:40:00,23.1,17.8,29.71,NW,322,0.0,0.0,80,0.00,OVC,,0.00,WeatherDisplay:10.37,2013-02-14 06:40:00,
2013-02-14 01:45:00,23.0,17.7,29.71,NW,322,0.0,0.0,80,0.00,OVC,,0.00,WeatherDisplay:10.37,2013-02-14 06:45:00,
2013-02-14 01:50:00,23.1,17.8,29.71,NW,322,0.0,0.0,80,0.00,OVC,,0.00,WeatherDisplay:10.37,2013-02-14 06:50:00,
2013-02-14 01:55:00,22.7,17.5,29.71,NW,322,0.0,0.0,80,0.00,OVC,,0.00,WeatherDisplay:10.37,2013-02-14 06:55:00,
2013-02-14 02:00:00,22.9,17.7,29.71,NW,322,0.0,0.0,80,0.00,OVC,,0.00,WeatherDisplay:10.37,2013-02-14 07:00:00,
2013-02-14 02:05:00,22.8,17.6,29.71,NW,322,0.0,0.0,80,0.00,OVC,,0.00,WeatherDisplay:10.37,2013-02-14 07:05:00,
2013-02-14 02:10:00,22.3,17.1,29.75,NW,322,0.0,0.0,80,0.00,OVC,,0.00,WeatherDisplay:10.37,2013-02-14 07:10:00,
2013-02-14 02:15:00,22.3,17.1,29.75,NW,322,0.0,0.0,80,0.00,OVC,,0.00,WeatherDisplay:10.37,2013-02-14 07:15:00,
2013-02-14 02:20:00,22.6,17.4,29.75,NW,322,0.0,0.0,80,0.00,OVC,,0.00,WeatherDisplay:10.37,2013-02-14 07:20:00,
2013-02-14 02:25:00,22.5,17.3,29.75,NW,322,0.0,0.0,80,0.00,OVC,,0.00,WeatherDisplay:10.37,2013-02-14 07:25:00,
2013-02-14 02:30:00,22.6,17.4,29.75,NW,322,0.0,0.0,80,0.00,OVC,,0.00,WeatherDisplay:10.37,2013-02-14 07:30:00,
2013-02-14 02:35:00,22.7,17.5,29.75,NW,322,0.0,0.0,80,0.00,OVC,,0.00,WeatherDisplay:10.37,2013-02-14 07:35:00,
2013-02-14 02:40:00,22.9,17.7,29.75,NW,322,0.0,0.0,80,0.00,OVC,,0.00,WeatherDisplay:10.37,2013-02-14 07:40:00,
2013-02-14 02:45:00,22.7,17.5,29.75,NW,322,0.0,0.0,80,0.00,OVC,,0.00,WeatherDisplay:10.37,2013-02-14 07:45:00,
2013-02-14 02:50:00,22.8,17.6,29.75,NW,322,0.0,0.0,80,0.00,OVC,,0.00,WeatherDisplay:10.37,2013-02-14 07:50:00,
2013-02-14 02:55:00,22.2,17.0,29.75,NW,322,0.0,0.0,80,0.00,OVC,,0.00,WeatherDisplay:10.37,2013-02-14 07:55:00,
2013-02-14 03:00:00,22.7,17.5,29.74,NW,322,0.0,0.0,80,0.00,BKN,,0.00,WeatherDisplay:10.37,2013-02-14 08:00:00,
2013-02-14 03:05:00,22.5,17.3,29.74,NW,322,0.0,0.0,80,0.00,BKN,,0.00,WeatherDisplay:10.37,2013-02-14 08:05:00,
2013-02-14 03:10:00,22.2,17.0,29.74,NW,322,0.0,0.0,80,0.00,BKN,,0.00,WeatherDisplay:10.37,2013-02-14 08:10:00,
2013-02-14 03:15:00,22.1,16.9,29.74,NW,322,0.0,0.0,80,0.00,BKN,,0.00,WeatherDisplay:10.37,2013-02-14 08:15:00,
2013-02-14 03:20:00,21.9,16.7,29.74,NW,322,0.0,0.0,80,0.00,BKN,,0.00,WeatherDisplay:10.37,2013-02-14 08:20:00,
2013-02-14 03:25:00,22.1,16.9,29.74,NW,322,0.0,0.0,80,0.00,BKN,,0.00,WeatherDisplay:10.37,2013-02-14 08:25:00,
2013-02-14 03:30:00,22.1,16.9,29.74,NW,322,0.0,0.0,80,0.00,BKN,,0.00,WeatherDisplay:10.37,2013-02-14 08:30:00,
2013-02-14 03:35:00,22.2,17.0,29.74,NW,322,0.0,0.0,80,0.00,BKN,,0.00,WeatherDisplay:10.37,2013-02-14 08:35:00,
2013-02-14 03:40:00,21.9,16.7,29.74,NW,322,0.0,0.0,80,0.00,BKN,,0.00,WeatherDisplay:10.37,2013-02-14 08:40:00,
2013-02-14 03:45:00,22.1,16.9,29.74,NW,322,0.0,0.0,80,0.00,BKN,,0.00,WeatherDisplay:10.37,2013-02-14 08:45:00,
2013-02-14 03:50:00,22.2,17.0,29.74,NW,322,0.0,0.0,80,0.00,BKN,,0.00,WeatherDisplay:10.37,2013-02-14 08:50:00,
2013-02-14 03:55:00,22.2,17.0,29.74,NW,322,0.0,0.0,80,0.00,BKN,,0.00,WeatherDisplay:10.37,2013-02-14 08:55:00,
2013-02-14 04:00:00,22.3,17.1,29.74,NW,322,0.0,0.0,80,0.00,BKN,,0.00,WeatherDisplay:10.37,2013-02-14 09:00:00,
2013-02-14 04:05:00,22.1,16.9,29.74,NW,322,0.0,0.0,80,0.00,BKN,,0.00,WeatherDisplay:10.37,2013-02-14 09:05:00,
2013-02-14 04:10:00,22.1,17.7,29.76,NW,322,0.0,0.0,83,0.00,OVC,,0.00,WeatherDisplay:10.37,2013-02-14 09:10:00,
2013-02-14 04:15:00,22.2,17.8,29.76,NW,322,0.0,0.0,83,0.00,OVC,,0.00,WeatherDisplay:10.37,2013-02-14 09:15:00,
2013-02-14 04:20:00,21.5,17.1,29.76,NW,322,0.0,0.0,83,0.00,OVC,,0.00,WeatherDisplay:10.37,2013-02-14 09:20:00,
2013-02-14 04:25:00,21.7,17.3,29.76,NW,322,0.0,0.0,83,0.00,OVC,,0.00,WeatherDisplay:10.37,2013-02-14 09:25:00,
2013-02-14 04:30:00,21.8,17.4,29.76,NW,322,0.0,0.0,83,0.00,OVC,,0.00,WeatherDisplay:10.37,2013-02-14 09:30:00,
2013-02-14 04:35:00,21.6,17.2,29.76,NW,322,0.0,0.0,83,0.00,OVC,,0.00,WeatherDisplay:10.37,2013-02-14 09:35:00,
2013-02-14 04:40:00,21.5,17.1,29.76,NW,322,0.0,0.0,83,0.00,OVC,,0.00,WeatherDisplay:10.37,2013-02-14 09:40:00,
2013-02-14 04:45:00,21.6,17.2,29.76,NW,322,0.0,0.0,83,0.00,OVC,,0.00,WeatherDisplay:10.37,2013-02-14 09:45:00,
2013-02-14 04:50:00,21.7,17.3,29.76,NW,322,0.0,0.0,83,0.00,OVC,,0.00,WeatherDisplay:10.37,2013-02-14 09:50:00,
2013-02-14 04:55:00,21.3,16.9,29.76,NW,322,0.0,0.0,83,0.00,OVC,,0.00,WeatherDisplay:10.37,2013-02-14 09:55:00,
2013-02-14 05:00:00,21.5,17.1,29.76,NW,322,0.0,0.0,83,0.00,OVC,,0.00,WeatherDisplay:10.37,2013-02-14 10:00:00,
2013-02-14 05:05:00,21.3,16.9,29.76,NW,322,0.0,0.0,83,0.00,OVC,,0.00,WeatherDisplay:10.37,2013-02-14 10:05:00,
2013-02-14 05:10:00,20.7,19.5,29.78,NW,322,0.0,0.0,95,0.00,OVC,,0.00,WeatherDisplay:10.37,2013-02-14 10:10:00,
2013-02-14 05:15:00,20.4,19.2,29.78,NW,322,0.0,0.0,95,0.00,OVC,,0.00,WeatherDisplay:10.37,2013-02-14 10:15:00,
2013-02-14 05:20:00,20.5,19.3,29.78,NW,322,0.0,0.0,95,0.00,OVC,,0.00,WeatherDisplay:10.37,2013-02-14 10:20:00,
2013-02-14 05:25:00,20.7,19.5,29.78,NW,322,0.0,0.0,95,0.00,OVC,,0.00,WeatherDisplay:10.37,2013-02-14 10:25:00,
2013-02-14 05:30:00,20.7,19.5,29.78,NW,322,0.0,0.0,95,0.00,OVC,,0.00,WeatherDisplay:10.37,2013-02-14 10:30:00,
2013-02-14 05:35:00,20.5,19.3,29.78,NW,322,0.0,0.0,95,0.00,OVC,,0.00,WeatherDisplay:10.37,2013-02-14 10:35:00,
2013-02-14 05:40:00,20.2,19.0,29.78,NW,322,0.0,0.0,95,0.00,OVC,,0.00,WeatherDisplay:10.37,2013-02-14 10:40:00,
2013-02-14 05:45:00,19.8,18.6,29.78,NW,322,0.0,0.0,95,0.00,OVC,,0.00,WeatherDisplay:10.37,2013-02-14 10:45:00,
2013-02-14 05:50:00,19.9,18.7,29.78,NW,322,0.0,0.0,95,0.00,OVC,,0.00,WeatherDisplay:10.37,2013-02-14 10:50:00,
2013-02-14 05:55:00,19.6,18.4,29.78,NW,322,0.0,0.0,95,0.00,OVC,,0.00,WeatherDisplay:10.37,2013-02-14 10:55:00,
2013-02-14 06:00:00,19.7,18.5,29.78,NW,322,0.0,0.0,95,0.00,OVC,,0.00,WeatherDisplay:10.37,2013-02-14 11:00:00,
2013-02-14 06:05:00,19.6,18.4,29.78,NW,322,0.0,0.0,95,0.00,OVC,,0.00,WeatherDisplay:10.37,2013-02-14 11:05:00,
2013-02-14 06:10:00,20.1,17.1,29.79,NW,322,0.0,0.0,88,0.00,OVC,,0.00,WeatherDisplay:10.37,2013-02-14 11:10:00,
2013-02-14 06:15:00,20.1,17.1,29.79,NW,322,0.0,0.0,88,0.00,OVC,,0.00,WeatherDisplay:10.37,2013-02-14 11:15:00,
2013-02-14 06:20:00,20.0,17.0,29.79,NW,322,0.0,0.0,88,0.00,OVC,,0.00,WeatherDisplay:10.37,2013-02-14 11:20:00,
2013-02-14 06:25:00,20.2,17.2,29.79,NW,322,0.0,0.0,88,0.00,OVC,,0.00,WeatherDisplay:10.37,2013-02-14 11:25:00,
2013-02-14 06:30:00,19.6,16.6,29.79,NW,322,0.0,0.0,88,0.00,OVC,,0.00,WeatherDisplay:10.37,2013-02-14 11:30:00,
2013-02-14 06:35:00,19.7,16.7,29.79,NW,322,0.0,0.0,88,0.00,OVC,,0.00,WeatherDisplay:10.37,2013-02-14 11:35:00,
2013-02-14 06:40:00,19.3,16.3,29.79,NW,322,0.0,0.0,88,0.00,OVC,,0.00,WeatherDisplay:10.37,2013-02-14 11:40:00,
2013-02-14 06:45:00,20.1,17.1,29.79,NW,322,0.0,0.0,88,0.00,OVC,,0.00,WeatherDisplay:10.37,2013-02-14 11:45:00,
2013-02-14 06:50:00,20.5,17.5,29.79,NW,322,0.0,0.0,88,0.00,OVC,,0.00,WeatherDisplay:10.37,2013-02-14 11:50:00,
2013-02-14 06:55:00,20.0,17.0,29.79,NW,322,0.0,0.0,88,0.00,OVC,,0.00,WeatherDisplay:10.37,2013-02-14 11:55:00,
2013-02-14 07:00:00,20.6,17.6,29.79,NW,322,0.0,0.0,88,0.00,OVC,,0.00,WeatherDisplay:10.37,2013-02-14 12:00:00,
2013-02-14 07:05:00,21.0,18.0,29.79,NW,322,0.0,0.0,88,0.00,OVC,,0.00,WeatherDisplay:10.37,2013-02-14 12:05:00,
2013-02-14 07:10:00,20.5,18.3,29.81,NW,322,0.0,0.0,91,0.00,OVC,,0.00,WeatherDisplay:10.37,2013-02-14 12:10:00,
2013-02-14 07:15:00,20.2,18.0,29.81,NW,322,0.0,0.0,91,0.00,OVC,,0.00,WeatherDisplay:10.37,2013-02-14 12:15:00,
2013-02-14 07:20:00,20.4,18.2,29.81,NW,322,0.0,0.0,91,0.00,OVC,,0.00,WeatherDisplay:10.37,2013-02-14 12:20:00,
2013-02-14 07:25:00,20.6,18.4,29.81,NW,322,0.0,0.0,91,0.00,OVC,,0.00,WeatherDisplay:10.37,2013-02-14 12:25:00,
2013-02-14 07:30:00,20.6,18.4,29.81,NW,322,0.0,0.0,91,0.00,OVC,,0.00,WeatherDisplay:10.37,2013-02-14 12:30:00,
2013-02-14 07:35:00,21.0,18.8,29.81,NW,322,0.0,0.0,91,0.00,OVC,,0.00,WeatherDisplay:10.37,2013-02-14 12:35:00,
2013-02-14 07:40:00,21.5,19.3,29.81,NW,322,0.0,0.0,91,0.00,OVC,,0.00,WeatherDisplay:10.37,2013-02-14 12:40:00,
2013-02-14 07:45:00,21.7,19.5,29.81,NW,322,0.0,0.0,91,0.00,OVC,,0.00,WeatherDisplay:10.37,2013-02-14 12:45:00,
2013-02-14 07:50:00,21.8,19.6,29.81,NW,322,0.0,0.0,91,0.00,OVC,,0.00,WeatherDisplay:10.37,2013-02-14 12:50:00,
2013-02-14 07:55:00,22.4,20.2,29.81,NW,322,0.0,0.0,91,0.00,OVC,,0.00,WeatherDisplay:10.37,2013-02-14 12:55:00,
2013-02-14 08:00:00,22.4,19.1,29.83,NW,322,0.0,0.0,87,0.00,OVC,,0.00,WeatherDisplay:10.37,2013-02-14 13:00:00,
2013-02-14 08:05:00,22.8,19.5,29.83,NW,322,0.0,0.0,87,0.00,OVC,,0.00,WeatherDisplay:10.37,2013-02-14 13:05:00,
2013-02-14 08:10:00,22.7,19.4,29.83,NW,322,0.0,0.0,87,0.00,OVC,,0.00,WeatherDisplay:10.37,2013-02-14 13:10:00,
2013-02-14 08:15:00,22.9,19.6,29.83,NW,322,0.0,0.0,87,0.00,OVC,,0.00,WeatherDisplay:10.37,2013-02-14 13:15:00,
2013-02-14 08:20:00,23.0,19.7,29.83,NW,322,0.0,0.0,87,0.00,OVC,,0.00,WeatherDisplay:10.37,2013-02-14 13:20:00,
2013-02-14 08:25:00,23.4,20.1,29.83,NW,322,0.0,0.0,87,0.00,OVC,,0.00,WeatherDisplay:10.37,2013-02-14 13:25:00,
2013-02-14 08:30:00,23.6,20.3,29.83,NW,322,0.0,0.0,87,0.00,OVC,,0.00,WeatherDisplay:10.37,2013-02-14 13:30:00,
2013-02-14 08:35:00,23.8,20.5,29.83,NW,322,0.0,0.0,87,0.00,OVC,,0.00,WeatherDisplay:10.37,2013-02-14 13:35:00,
2013-02-14 08:40:00,24.3,21.0,29.83,NW,322,0.0,0.0,87,0.00,OVC,,0.00,WeatherDisplay:10.37,2013-02-14 13:40:00,
2013-02-14 08:45:00,24.6,21.3,29.83,NW,322,0.0,0.0,87,0.00,OVC,,0.00,WeatherDisplay:10.37,2013-02-14 13:45:00,
2013-02-14 08:50:00,24.9,21.6,29.83,NW,322,0.0,0.0,87,0.00,OVC,,0.00,WeatherDisplay:10.37,2013-02-14 13:50:00,
2013-02-14 08:55:00,25.0,21.7,29.83,NW,322,0.0,0.0,87,0.00,OVC,,0.00,WeatherDisplay:10.37,2013-02-14 13:55:00,
2013-02-14 09:00:00,25.9,22.6,29.83,NW,322,0.0,0.0,87,0.00,OVC,,0.00,WeatherDisplay:10.37,2013-02-14 14:00:00,
2013-02-14 09:05:00,26.0,22.7,29.83,NW,322,0.0,0.0,87,0.00,OVC,,0.00,WeatherDisplay:10.37,2013-02-14 14:05:00,
2013-02-14 09:10:00,26.2,18.1,29.86,NW,322,0.0,0.0,71,0.00,OVC,,0.00,WeatherDisplay:10.37,2013-02-14 14:10:00,
2013-02-14 09:15:00,26.6,18.5,29.86,NW,322,0.0,0.0,71,0.00,OVC,,0.00,WeatherDisplay:10.37,2013-02-14 14:15:00,
2013-02-14 09:20:00,26.8,18.7,29.86,NW,322,0.0,0.0,71,0.00,OVC,,0.00,WeatherDisplay:10.37,2013-02-14 14:20:00,
2013-02-14 09:25:00,27.1,18.9,29.86,NW,322,1.1,1.1,71,0.00,OVC,,0.00,WeatherDisplay:10.37,2013-02-14 14:25:00,
2013-02-14 09:30:00,27.3,19.1,29.86,NW,325,0.0,0.0,71,0.00,OVC,,0.00,WeatherDisplay:10.37,2013-02-14 14:30:00,
2013-02-14 09:35:00,28.0,19.8,29.86,NW,325,0.0,0.0,71,0.00,OVC,,0.00,WeatherDisplay:10.37,2013-02-14 14:35:00,
2013-02-14 09:40:00,29.0,20.8,29.86,NW,325,0.0,0.0,71,0.00,OVC,,0.00,WeatherDisplay:10.37,2013-02-14 14:40:00,
2013-02-14 09:45:00,28.7,20.5,29.86,NW,325,0.0,0.0,71,0.00,OVC,,0.00,WeatherDisplay:10.37,2013-02-14 14:45:00,
2013-02-14 09:50:00,30.0,21.7,29.86,NW,325,0.0,0.0,71,0.00,OVC,,0.00,WeatherDisplay:10.37,2013-02-14 14:50:00,
2013-02-14 09:55:00,29.9,21.6,29.86,NW,325,0.0,0.0,71,0.00,OVC,,0.00,WeatherDisplay:10.37,2013-02-14 14:55:00,
2013-02-14 10:00:00,31.0,19.9,29.88,NW,325,0.0,0.0,63,0.00,OVC,,0.00,WeatherDisplay:10.37,2013-02-14 15:00:00,
2013-02-14 10:05:00,32.1,20.9,29.88,NW,325,0.0,0.0,63,0.00,OVC,,0.00,WeatherDisplay:10.37,2013-02-14 15:05:00,
2013-02-14 10:10:00,31.8,20.6,29.88,NNW,329,2.0,2.0,63,0.00,OVC,,0.00,WeatherDisplay:10.37,2013-02-14 15:10:00,
2013-02-14 10:15:00,31.9,20.7,29.88,NNW,329,2.0,2.0,63,0.00,OVC,,0.00,WeatherDisplay:10.37,2013-02-14 15:15:00,
2013-02-14 10:20:00,31.9,20.7,29.88,NNW,329,0.0,0.0,63,0.00,OVC,,0.00,WeatherDisplay:10.37,2013-02-14 15:20:00,
2013-02-14 10:25:00,32.0,20.8,29.88,NNW,329,0.0,0.0,63,0.00,OVC,,0.00,WeatherDisplay:10.37,2013-02-14 15:25:00,
2013-02-14 10:30:00,31.7,20.5,29.88,NW,325,2.3,2.3,63,0.00,OVC,,0.00,WeatherDisplay:10.37,2013-02-14 15:30:00,
2013-02-14 10:35:00,31.5,20.3,29.88,NW,325,1.1,1.1,63,0.00,OVC,,0.00,WeatherDisplay:10.37,2013-02-14 15:35:00,
2013-02-14 10:40:00,31.5,20.3,29.88,NW,318,3.5,3.5,63,0.00,OVC,,0.00,WeatherDisplay:10.37,2013-02-14 15:40:00,
2013-02-14 10:45:00,31.9,20.7,29.88,NW,314,1.1,0.0,63,0.00,OVC,,0.00,WeatherDisplay:10.37,2013-02-14 15:45:00,
2013-02-14 10:50:00,31.5,20.3,29.88,NW,304,3.5,3.5,63,0.00,OVC,,0.00,WeatherDisplay:10.37,2013-02-14 15:50:00,
2013-02-14 10:55:00,31.5,20.3,29.88,WNW,288,2.3,2.3,63,0.00,OVC,,0.00,WeatherDisplay:10.37,2013-02-14 15:55:00,
2013-02-14 11:00:00,31.6,18.5,29.89,WNW,288,2.3,2.3,58,0.00,OVC,,0.00,WeatherDisplay:10.37,2013-02-14 16:00:00,
2013-02-14 11:05:00,32.0,18.9,29.89,WNW,297,3.5,3.5,58,0.00,OVC,,0.00,WeatherDisplay:10.37,2013-02-14 16:05:00,
2013-02-14 11:10:00,32.2,19.1,29.89,NW,314,1.1,1.1,58,0.00,OVC,,0.00,WeatherDisplay:10.37,2013-02-14 16:10:00,
2013-02-14 11:15:00,33.2,20.0,29.89,NW,314,0.0,0.0,58,0.00,OVC,,0.00,WeatherDisplay:10.37,2013-02-14 16:15:00,
2013-02-14 11:20:00,33.0,19.8,29.89,North,8,3.5,3.5,58,0.00,OVC,,0.00,WeatherDisplay:10.37,2013-02-14 16:20:00,
2013-02-14 11:25:00,33.6,20.4,29.89,North,7,2.0,2.0,58,0.00,OVC,,0.00,WeatherDisplay:10.37,2013-02-14 16:25:00,
2013-02-14 11:30:00,33.6,20.4,29.89,North,6,1.0,1.0,58,0.00,OVC,,0.00,WeatherDisplay:10.37,2013-02-14 16:30:00,
2013-02-14 11:35:00,33.2,20.0,29.89,WNW,292,3.5,3.5,58,0.00,OVC,,0.00,WeatherDisplay:10.37,2013-02-14 16:35:00,
2013-02-14 11:40:00,34.4,21.1,29.89,WNW,291,3.5,3.5,58,0.00,OVC,,0.00,WeatherDisplay:10.37,2013-02-14 16:40:00,
2013-02-14 11:45:00,34.6,21.3,29.89,NW,305,4.6,4.6,58,0.00,OVC,,0.00,WeatherDisplay:10.37,2013-02-14 16:45:00,
2013-02-14 11:50:00,34.4,21.1,29.89,NW,305,3.5,3.5,58,0.00,OVC,,0.00,WeatherDisplay:10.37,2013-02-14 16:50:00,
2013-02-14 11:55:00,34.7,21.4,29.89,NW,307,3.5,3.5,58,0.00,OVC,,0.00,WeatherDisplay:10.37,2013-02-14 16:55:00,
2013-02-14 12:00:00,35.4,19.9,29.89,WSW,257,6.0,6.0,53,0.00,OVC,,0.00,WeatherDisplay:10.37,2013-02-14 17:00:00,
2013-02-14 12:05:00,36.2,20.7,29.89,West,268,3.5,3.5,53,0.00,OVC,,0.00,WeatherDisplay:10.37,2013-02-14 17:05:00,
2013-02-14 12:10:00,36.6,21.1,29.89,WNW,286,3.5,3.5,53,0.00,OVC,,0.00,WeatherDisplay:10.37,2013-02-14 17:10:00,
2013-02-14 12:15:00,35.3,19.9,29.89,NW,317,4.6,4.6,53,0.00,OVC,,0.00,WeatherDisplay:10.37,2013-02-14 17:15:00,
2013-02-14 12:20:00,35.7,20.2,29.89,West,264,3.5,3.5,53,0.00,OVC,,0.00,WeatherDisplay:10.37,2013-02-14 17:20:00,
2013-02-14 12:25:00,34.9,19.5,29.89,NW,314,3.5,3.5,53,0.00,OVC,,0.00,WeatherDisplay:10.37,2013-02-14 17:25:00,
2013-02-14 12:30:00,35.0,19.6,29.89,WNW,302,3.5,3.5,53,0.00,OVC,,0.00,WeatherDisplay:10.37,2013-02-14 17:30:00,
2013-02-14 12:35:00,35.8,20.3,29.89,WSW,255,2.3,2.3,53,0.00,OVC,,0.00,WeatherDisplay:10.37,2013-02-14 17:35:00,
2013-02-14 12:40:00,35.6,20.1,29.89,NW,318,3.5,3.5,53,0.00,OVC,,0.00,WeatherDisplay:10.37,2013-02-14 17:40:00,
2013-02-14 12:45:00,35.9,20.4,29.89,NW,324,3.5,3.5,53,0.00,OVC,,0.00,WeatherDisplay:10.37,2013-02-14 17:45:00,
2013-02-14 12:50:00,35.0,19.6,29.89,NNW,334,4.6,4.6,53,0.00,OVC,,0.00,WeatherDisplay:10.37,2013-02-14 17:50:00,
2013-02-14 12:55:00,35.5,20.0,29.89,NNW,336,1.1,1.1,53,0.00,OVC,,0.00,WeatherDisplay:10.37,2013-02-14 17:55:00,
2013-02-14 13:00:00,36.3,17.0,29.87,NNW,335,2.3,2.3,45,0.00,CLR,,0.00,WeatherDisplay:10.37,2013-02-14 18:00:00,
2013-02-14 13:05:00,35.3,16.0,29.87,NNW,335,3.5,3.5,45,0.00,CLR,,0.00,WeatherDisplay:10.37,2013-02-14 18:05:00,
2013-02-14 13:10:00,35.9,16.6,29.87,WSW,251,3.5,3.5,45,0.00,CLR,,0.00,WeatherDisplay:10.37,2013-02-14 18:10:00,
2013-02-14 13:15:00,35.8,16.5,29.87,WNW,289,2.3,2.3,45,0.00,CLR,,0.00,WeatherDisplay:10.37,2013-02-14 18:15:00,
2013-02-14 13:20:00,36.4,17.1,29.87,WNW,290,2.3,2.3,45,0.00,CLR,,0.00,WeatherDisplay:10.37,2013-02-14 18:20:00,
2013-02-14 13:25:00,35.9,16.6,29.87,WNW,289,1.1,1.1,45,0.00,CLR,,0.00,WeatherDisplay:10.37,2013-02-14 18:25:00,
2013-02-14 13:31:00,35.5,16.2,29.87,NNE,23,3.5,3.5,45,0.00,CLR,,0.00,WeatherDisplay:10.37,2013-02-14 18:31:00,
2013-02-14 13:36:00,36.1,16.8,29.87,NNE,19,3.5,3.5,45,0.00,CLR,,0.00,WeatherDisplay:10.37,2013-02-14 18:36:00,
2013-02-14 13:41:00,35.6,16.3,29.87,North,7,3.5,3.5,45,0.00,CLR,,0.00,WeatherDisplay:10.37,2013-02-14 18:41:00,
2013-02-14 13:46:00,36.5,17.1,29.87,North,3,0.0,0.1,45,0.00,CLR,,0.00,WeatherDisplay:10.37,2013-02-14 18:46:00,
2013-02-14 13:51:00,37.0,17.6,29.87,West,261,3.5,3.5,45,0.00,CLR,,0.00,WeatherDisplay:10.37,2013-02-14 18:51:00,
2013-02-14 13:56:00,36.8,17.4,29.87,NW,323,1.1,0.0,45,0.00,CLR,,0.00,WeatherDisplay:10.37,2013-02-14 18:56:00,
2013-02-14 14:01:00,36.5,15.6,29.87,North,349,2.3,2.3,42,0.00,CLR,,0.00,WeatherDisplay:10.37,2013-02-14 19:01:00,
2013-02-14 14:06:00,37.0,16.0,29.87,NNW,347,1.1,1.1,42,0.00,CLR,,0.00,WeatherDisplay:10.37,2013-02-14 19:06:00,
2013-02-14 14:11:00,37.3,16.3,29.87,NNW,347,1.1,1.1,42,0.00,CLR,,0.00,WeatherDisplay:10.37,2013-02-14 19:11:00,
2013-02-14 14:16:00,37.0,16.0,29.87,NNW,347,1.1,1.1,42,0.00,CLR,,0.00,WeatherDisplay:10.37,2013-02-14 19:16:00,
2013-02-14 14:21:00,36.5,15.6,29.87,NW,323,1.1,1.1,42,0.00,CLR,,0.00,WeatherDisplay:10.37,2013-02-14 19:21:00,
2013-02-14 14:26:00,37.0,16.0,29.87,NW,323,1.1,1.1,42,0.00,CLR,,0.00,WeatherDisplay:10.37,2013-02-14 19:26:00,
2013-02-14 14:31:00,36.3,15.4,29.87,NW,325,2.3,2.3,42,0.00,CLR,,0.00,WeatherDisplay:10.37,2013-02-14 19:31:00,
2013-02-14 14:36:00,36.3,15.4,29.87,NW,325,1.1,1.1,42,0.00,CLR,,0.00,WeatherDisplay:10.37,2013-02-14 19:36:00,
2013-02-14 14:41:00,36.6,15.6,29.87,NW,326,1.1,0.0,42,0.00,CLR,,0.00,WeatherDisplay:10.37,2013-02-14 19:41:00,
2013-02-14 14:46:00,35.9,15.0,29.87,NW,326,0.0,0.0,42,0.00,CLR,,0.00,WeatherDisplay:10.37,2013-02-14 19:46:00,
2013-02-14 14:51:00,36.4,15.5,29.87,NW,326,1.1,1.1,42,0.00,CLR,,0.00,WeatherDisplay:10.37,2013-02-14 19:51:00,
2013-02-14 14:56:00,36.8,15.8,29.87,NW,326,0.0,0.0,42,0.00,CLR,,0.00,WeatherDisplay:10.37,2013-02-14 19:56:00,
2013-02-14 15:01:00,36.3,14.3,29.87,NW,326,1.1,1.1,40,0.00,CLR,,0.00,WeatherDisplay:10.37,2013-02-14 20:01:00,
2013-02-14 15:06:00,36.2,14.2,29.87,NW,326,1.1,0.0,40,0.00,CLR,,0.00,WeatherDisplay:10.37,2013-02-14 20:06:00,
2013-02-14 15:11:00,36.2,14.2,29.87,NW,326,1.1,1.1,40,0.00,CLR,,0.00,WeatherDisplay:10.37,2013-02-14 20:11:00,
2013-02-14 15:16:00,35.8,13.8,29.87,NW,326,2.3,2.3,40,0.00,CLR,,0.00,WeatherDisplay:10.37,2013-02-14 20:16:00,
2013-02-14 15:21:00,36.1,14.1,29.87,NW,325,1.1,1.1,40,0.00,CLR,,0.00,WeatherDisplay:10.37,2013-02-14 20:21:00,
2013-02-14 15:26:00,35.4,13.4,29.87,NW,325,2.3,2.3,40,0.00,CLR,,0.00,WeatherDisplay:10.37,2013-02-14 20:26:00,
2013-02-14 15:31:00,34.9,13.0,29.87,NW,325,1.1,0.0,40,0.00,CLR,,0.00,WeatherDisplay:10.37,2013-02-14 20:31:00,
2013-02-14 15:36:00,35.4,13.4,29.87,NW,325,0.0,0.0,40,0.00,CLR,,0.00,WeatherDisplay:10.37,2013-02-14 20:36:00,
2013-02-14 15:41:00,35.8,13.8,29.87,NW,325,0.0,0.0,40,0.00,CLR,,0.00,WeatherDisplay:10.37,2013-02-14 20:41:00,
2013-02-14 15:46:00,35.7,13.7,29.87,NW,325,0.0,0.0,40,0.00,CLR,,0.00,WeatherDisplay:10.37,2013-02-14 20:46:00,
2013-02-14 15:51:00,35.4,13.4,29.87,NW,325,0.0,0.0,40,0.00,CLR,,0.00,WeatherDisplay:10.37,2013-02-14 20:51:00,
2013-02-14 15:56:00,34.9,13.0,29.87,NW,325,0.0,0.0,40,0.00,CLR,,0.00,WeatherDisplay:10.37,2013-02-14 20:56:00,
2013-02-14 16:01:00,34.7,11.0,29.89,NW,325,0.0,0.0,37,0.00,CLR,,0.00,WeatherDisplay:10.37,2013-02-14 21:01:00,
2013-02-14 16:06:00,34.5,10.9,29.89,NW,325,0.0,0.0,37,0.00,CLR,,0.00,WeatherDisplay:10.37,2013-02-14 21:06:00,
2013-02-14 16:11:00,34.5,10.9,29.89,NE,39,2.3,2.3,37,0.00,CLR,,0.00,WeatherDisplay:10.37,2013-02-14 21:11:00,
2013-02-14 16:16:00,34.5,10.9,29.89,East,101,3.5,3.5,37,0.00,CLR,,0.00,WeatherDisplay:10.37,2013-02-14 21:16:00,
2013-02-14 16:21:00,34.0,10.4,29.89,ESE,103,0.0,0.0,37,0.00,CLR,,0.00,WeatherDisplay:10.37,2013-02-14 21:21:00,
2013-02-14 16:26:00,33.5,10.0,29.89,ESE,103,1.1,1.1,37,0.00,CLR,,0.00,WeatherDisplay:10.37,2013-02-14 21:26:00,
2013-02-14 16:31:00,33.6,10.1,29.89,ESE,102,3.5,3.5,37,0.00,CLR,,0.00,WeatherDisplay:10.37,2013-02-14 21:31:00,
2013-02-14 16:36:00,33.2,9.7,29.89,ESE,102,0.0,0.0,37,0.00,CLR,,0.00,WeatherDisplay:10.37,2013-02-14 21:36:00,
2013-02-14 16:41:00,33.4,9.9,29.89,ESE,102,0.0,0.0,37,0.00,CLR,,0.00,WeatherDisplay:10.37,2013-02-14 21:41:00,
2013-02-14 16:46:00,33.5,10.0,29.89,ESE,102,0.0,0.0,37,0.00,CLR,,0.00,WeatherDisplay:10.37,2013-02-14 21:46:00,
2013-02-14 16:51:00,33.1,9.6,29.89,ESE,102,0.0,0.0,37,0.00,CLR,,0.00,WeatherDisplay:10.37,2013-02-14 21:51:00,
2013-02-14 16:56:00,32.6,9.2,29.89,ESE,102,0.0,0.0,37,0.00,CLR,,0.00,WeatherDisplay:10.37,2013-02-14 21:56:00,
2013-02-14 17:01:00,32.8,11.1,29.90,ESE,102,0.0,0.0,40,0.00,CLR,,0.00,WeatherDisplay:10.37,2013-02-14 22:01:00,
2013-02-14 17:06:00,32.0,10.4,29.90,ESE,102,0.0,0.0,40,0.00,CLR,,0.00,WeatherDisplay:10.37,2013-02-14 22:06:00,
2013-02-14 17:11:00,32.5,10.8,29.90,ESE,102,0.0,0.0,40,0.00,CLR,,0.00,WeatherDisplay:10.37,2013-02-14 22:11:00,
2013-02-14 17:16:00,32.2,10.5,29.90,ESE,102,0.0,0.0,40,0.00,CLR,,0.00,WeatherDisplay:10.37,2013-02-14 22:16:00,
2013-02-14 17:21:00,32.1,10.5,29.90,ESE,102,0.0,0.0,40,0.00,CLR,,0.00,WeatherDisplay:10.37,2013-02-14 22:21:00,
2013-02-14 17:26:00,32.0,10.4,29.90,ESE,102,0.0,0.0,40,0.00,CLR,,0.00,WeatherDisplay:10.37,2013-02-14 22:26:00,
2013-02-14 17:31:00,32.0,10.4,29.90,ESE,102,0.0,0.0,40,0.00,CLR,,0.00,WeatherDisplay:10.37,2013-02-14 22:31:00,
2013-02-14 17:36:00,31.5,9.9,29.90,ESE,102,0.0,0.0,40,0.00,CLR,,0.00,WeatherDisplay:10.37,2013-02-14 22:36:00,
2013-02-14 17:41:00,29.9,8.5,29.90,ESE,102,0.0,0.0,40,0.00,CLR,,0.00,WeatherDisplay:10.37,2013-02-14 22:41:00,
2013-02-14 17:46:00,29.3,7.9,29.90,ESE,102,0.0,0.0,40,0.00,CLR,,0.00,WeatherDisplay:10.37,2013-02-14 22:46:00,
2013-02-14 17:51:00,28.3,7.0,29.90,ESE,102,0.0,0.0,40,0.00,CLR,,0.00,WeatherDisplay:10.37,2013-02-14 22:51:00,
2013-02-14 17:56:00,28.3,7.0,29.90,ESE,102,0.0,0.0,40,0.00,CLR,,0.00,WeatherDisplay:10.37,2013-02-14 22:56:00,
2013-02-14 18:01:00,28.2,15.3,29.93,ESE,102,0.0,0.0,58,0.00,CLR,,0.00,WeatherDisplay:10.37,2013-02-14 23:01:00,
2013-02-14 18:06:00,27.8,14.9,29.93,ESE,102,0.0,0.0,58,0.00,CLR,,0.00,WeatherDisplay:10.37,2013-02-14 23:06:00,
2013-02-14 18:11:00,27.0,14.2,29.93,ESE,102,0.0,0.0,58,0.00,CLR,,0.00,WeatherDisplay:10.37,2013-02-14 23:11:00,
2013-02-14 18:16:00,27.1,14.3,29.93,ESE,102,0.0,0.0,58,0.00,CLR,,0.00,WeatherDisplay:10.37,2013-02-14 23:16:00,
2013-02-14 18:21:00,26.8,14.0,29.93,ESE,102,0.0,0.0,58,0.00,CLR,,0.00,WeatherDisplay:10.37,2013-02-14 23:21:00,
2013-02-14 18:26:00,26.6,13.8,29.93,ESE,102,0.0,0.0,58,0.00,CLR,,0.00,WeatherDisplay:10.37,2013-02-14 23:26:00,
2013-02-14 18:31:00,26.3,13.5,29.93,ESE,102,0.0,0.0,58,0.00,CLR,,0.00,WeatherDisplay:10.37,2013-02-14 23:31:00,
2013-02-14 18:36:00,26.2,13.4,29.93,ESE,102,0.0,0.0,58,0.00,CLR,,0.00,WeatherDisplay:10.37,2013-02-14 23:36:00,
2013-02-14 18:41:00,26.2,13.4,29.93,ESE,102,0.0,0.0,58,0.00,CLR,,0.00,WeatherDisplay:10.37,2013-02-14 23:41:00,
2013-02-14 18:46:00,25.9,13.1,29.93,ESE,102,0.0,0.0,58,0.00,CLR,,0.00,WeatherDisplay:10.37,2013-02-14 23:46:00,
2013-02-14 18:51:00,25.5,12.8,29.93,ESE,102,0.0,0.0,58,0.00,CLR,,0.00,WeatherDisplay:10.37,2013-02-14 23:51:00,
2013-02-14 18:56:00,25.3,12.6,29.93,ESE,102,0.0,0.0,58,0.00,CLR,,0.00,WeatherDisplay:10.37,2013-02-14 23:56:00,
2013-02-14 19:01:00,25.4,12.7,29.93,ESE,102,0.0,0.0,58,0.00,CLR,,0.00,WeatherDisplay:10.37,2013-02-15 00:01:00,
2013-02-14 19:06:00,25.2,15.4,29.95,ESE,102,0.0,0.0,66,0.00,CLR,,0.00,WeatherDisplay:10.37,2013-02-15 00:06:00,
2013-02-14 19:11:00,24.9,15.1,29.95,ESE,102,0.0,0.0,66,0.00,CLR,,0.00,WeatherDisplay:10.37,2013-02-15 00:11:00,
2013-02-14 19:16:00,25.0,15.2,29.95,ESE,102,0.0,0.0,66,0.00,CLR,,0.00,WeatherDisplay:10.37,2013-02-15 00:16:00,
2013-02-14 19:21:00,24.8,15.0,29.95,ESE,102,0.0,0.0,66,0.00,CLR,,0.00,WeatherDisplay:10.37,2013-02-15 00:21:00,
2013-02-14 19:26:00,24.5,14.8,29.95,ESE,102,0.0,0.0,66,0.00,CLR,,0.00,WeatherDisplay:10.37,2013-02-15 00:26:00,
2013-02-14 19:31:00,24.4,14.7,29.95,ESE,102,0.0,0.0,66,0.00,CLR,,0.00,WeatherDisplay:10.37,2013-02-15 00:31:00,
2013-02-14 19:36:00,24.2,14.5,29.95,ESE,102,0.0,0.0,66,0.00,CLR,,0.00,WeatherDisplay:10.37,2013-02-15 00:36:00,
2013-02-14 19:41:00,24.5,14.8,29.95,ESE,102,0.0,0.0,66,0.00,CLR,,0.00,WeatherDisplay:10.37,2013-02-15 00:41:00,
2013-02-14 19:46:00,24.4,14.7,29.95,ESE,102,0.0,0.0,66,0.00,CLR,,0.00,WeatherDisplay:10.37,2013-02-15 00:46:00,
2013-02-14 19:51:00,24.1,14.4,29.95,ESE,102,0.0,0.0,66,0.00,CLR,,0.00,WeatherDisplay:10.37,2013-02-15 00:51:00,
2013-02-14 19:56:00,24.1,14.4,29.95,ESE,102,0.0,0.0,66,0.00,CLR,,0.00,WeatherDisplay:10.37,2013-02-15 00:56:00,
2013-02-14 20:01:00,24.1,18.8,29.96,ESE,102,0.0,0.0,80,0.00,CLR,,0.00,WeatherDisplay:10.37,2013-02-15 01:01:00,
2013-02-14 20:06:00,24.0,18.7,29.96,ESE,102,0.0,0.0,80,0.00,CLR,,0.00,WeatherDisplay:10.37,2013-02-15 01:06:00,
2013-02-14 20:11:00,23.7,18.4,29.96,ESE,102,0.0,0.0,80,0.00,CLR,,0.00,WeatherDisplay:10.37,2013-02-15 01:11:00,
2013-02-14 20:16:00,23.6,18.3,29.96,ESE,102,0.0,0.0,80,0.00,CLR,,0.00,WeatherDisplay:10.37,2013-02-15 01:16:00,
2013-02-14 20:21:00,23.6,18.3,29.96,ESE,102,0.0,0.0,80,0.00,CLR,,0.00,WeatherDisplay:10.37,2013-02-15 01:21:00,
2013-02-14 20:26:00,23.5,18.2,29.96,ESE,102,0.0,0.0,80,0.00,CLR,,0.00,WeatherDisplay:10.37,2013-02-15 01:26:00,
2013-02-14 20:31:00,23.6,18.3,29.96,ESE,102,0.0,0.0,80,0.00,CLR,,0.00,WeatherDisplay:10.37,2013-02-15 01:31:00,
2013-02-14 20:36:00,23.5,18.2,29.96,ESE,102,0.0,0.0,80,0.00,CLR,,0.00,WeatherDisplay:10.37,2013-02-15 01:36:00,
2013-02-14 20:41:00,22.6,17.4,29.96,ESE,102,0.0,0.0,80,0.00,CLR,,0.00,WeatherDisplay:10.37,2013-02-15 01:41:00,
2013-02-14 20:46:00,23.1,17.8,29.96,ESE,102,0.0,0.0,80,0.00,CLR,,0.00,WeatherDisplay:10.37,2013-02-15 01:46:00,
2013-02-14 20:51:00,23.0,17.7,29.96,ESE,102,0.0,0.0,80,0.00,CLR,,0.00,WeatherDisplay:10.37,2013-02-15 01:51:00,
2013-02-14 20:56:00,22.8,17.6,29.96,ESE,102,0.0,0.0,80,0.00,CLR,,0.00,WeatherDisplay:10.37,2013-02-15 01:56:00,
2013-02-14 21:01:00,22.9,17.7,29.96,ESE,102,0.0,0.0,80,0.00,CLR,,0.00,WeatherDisplay:10.37,2013-02-15 02:01:00,
2013-02-14 21:06:00,23.0,17.7,29.96,ESE,102,0.0,0.0,80,0.00,CLR,,0.00,WeatherDisplay:10.37,2013-02-15 02:06:00,
2013-02-14 21:11:00,22.4,17.2,29.95,ESE,102,0.0,0.0,80,0.00,CLR,,0.00,WeatherDisplay:10.37,2013-02-15 02:11:00,
2013-02-14 21:16:00,22.3,17.1,29.95,ESE,102,0.0,0.0,80,0.00,CLR,,0.00,WeatherDisplay:10.37,2013-02-15 02:16:00,
2013-02-14 21:21:00,22.6,17.4,29.95,ESE,102,0.0,0.0,80,0.00,CLR,,0.00,WeatherDisplay:10.37,2013-02-15 02:21:00,
2013-02-14 21:26:00,22.3,17.1,29.95,ESE,102,0.0,0.0,80,0.00,CLR,,0.00,WeatherDisplay:10.37,2013-02-15 02:26:00,
2013-02-14 21:31:00,21.8,16.6,29.95,ESE,102,0.0,0.0,80,0.00,CLR,,0.00,WeatherDisplay:10.37,2013-02-15 02:31:00,
2013-02-14 21:36:00,22.2,17.0,29.95,ESE,102,0.0,0.0,80,0.00,CLR,,0.00,WeatherDisplay:10.37,2013-02-15 02:36:00,
2013-02-14 21:41:00,22.2,17.0,29.95,ESE,102,0.0,0.0,80,0.00,CLR,,0.00,WeatherDisplay:10.37,2013-02-15 02:41:00,
2013-02-14 21:46:00,22.0,16.8,29.95,ESE,102,0.0,0.0,80,0.00,CLR,,0.00,WeatherDisplay:10.37,2013-02-15 02:46:00,
2013-02-14 21:51:00,22.3,17.1,29.95,ESE,102,0.0,0.0,80,0.00,CLR,,0.00,WeatherDisplay:10.37,2013-02-15 02:51:00,
2013-02-14 21:56:00,21.8,16.6,29.95,ESE,102,0.0,0.0,80,0.00,CLR,,0.00,WeatherDisplay:10.37,2013-02-15 02:56:00,
2013-02-14 22:01:00,22.1,16.9,29.95,ESE,102,0.0,0.0,80,0.00,CLR,,0.00,WeatherDisplay:10.37,2013-02-15 03:01:00,
2013-02-14 22:06:00,21.9,16.7,29.95,ESE,102,0.0,0.0,80,0.00,CLR,,0.00,WeatherDisplay:10.37,2013-02-15 03:06:00,
2013-02-14 22:11:00,21.9,18.6,29.95,ESE,102,0.0,0.0,87,0.00,CLR,,0.00,WeatherDisplay:10.37,2013-02-15 03:11:00,
2013-02-14 22:16:00,22.1,18.8,29.95,ESE,102,0.0,0.0,87,0.00,CLR,,0.00,WeatherDisplay:10.37,2013-02-15 03:16:00,
2013-02-14 22:21:00,22.3,19.0,29.95,ESE,102,0.0,0.0,87,0.00,CLR,,0.00,WeatherDisplay:10.37,2013-02-15 03:21:00,
2013-02-14 22:26:00,22.3,19.0,29.95,ESE,102,0.0,0.0,87,0.00,CLR,,0.00,WeatherDisplay:10.37,2013-02-15 03:26:00,
2013-02-14 22:31:00,21.8,18.5,29.95,ESE,102,0.0,0.0,87,0.00,CLR,,0.00,WeatherDisplay:10.37,2013-02-15 03:31:00,
2013-02-14 22:36:00,22.0,18.7,29.95,ESE,102,0.0,0.0,87,0.00,CLR,,0.00,WeatherDisplay:10.37,2013-02-15 03:36:00,
2013-02-14 22:41:00,22.4,19.1,29.95,ESE,102,0.0,0.0,87,0.00,CLR,,0.00,WeatherDisplay:10.37,2013-02-15 03:41:00,
2013-02-14 22:46:00,22.8,19.5,29.95,ESE,102,0.0,0.0,87,0.00,CLR,,0.00,WeatherDisplay:10.37,2013-02-15 03:46:00,
2013-02-14 22:51:00,22.8,19.5,29.95,ESE,102,0.0,0.0,87,0.00,CLR,,0.00,WeatherDisplay:10.37,2013-02-15 03:51:00,
2013-02-14 22:56:00,22.6,19.3,29.95,ESE,102,0.0,0.0,87,0.00,CLR,,0.00,WeatherDisplay:10.37,2013-02-15 03:56:00,
2013-02-14 23:01:00,22.4,19.1,29.95,ESE,102,0.0,0.0,87,0.00,CLR,,0.00,WeatherDisplay:10.37,2013-02-15 04:01:00,
2013-02-14 23:06:00,22.3,19.0,29.95,ESE,102,0.0,0.0,87,0.00,CLR,,0.00,WeatherDisplay:10.37,2013-02-15 04:06:00,
2013-02-14 23:11:00,22.4,19.1,29.95,ESE,102,0.0,0.0,87,0.00,CLR,,0.00,WeatherDisplay:10.37,2013-02-15 04:11:00,
2013-02-14 23:16:00,22.5,18.4,29.96,ESE,102,1.1,1.1,84,0.00,OVC,,0.00,WeatherDisplay:10.37,2013-02-15 04:16:00,
2013-02-14 23:21:00,22.7,18.6,29.96,ESE,102,0.0,0.0,84,0.00,OVC,,0.00,WeatherDisplay:10.37,2013-02-15 04:21:00,
2013-02-14 23:26:00,22.8,18.7,29.96,ESE,102,0.0,0.0,84,0.00,OVC,,0.00,WeatherDisplay:10.37,2013-02-15 04:26:00,
2013-02-14 23:31:00,22.7,18.6,29.96,ESE,102,0.0,0.0,84,0.00,OVC,,0.00,WeatherDisplay:10.37,2013-02-15 04:31:00,
2013-02-14 23:36:00,22.6,18.5,29.96,ESE,102,0.0,0.0,84,0.00,OVC,,0.00,WeatherDisplay:10.37,2013-02-15 04:36:00,
2013-02-14 23:41:00,22.6,18.5,29.96,ESE,102,0.0,0.0,84,0.00,OVC,,0.00,WeatherDisplay:10.37,2013-02-15 04:41:00,
2013-02-14 23:46:00,22.8,18.7,29.96,ESE,102,0.0,0.0,84,0.00,OVC,,0.00,WeatherDisplay:10.37,2013-02-15 04:46:00,
2013-02-14 23:51:00,22.7,18.6,29.96,ESE,102,0.0,0.0,84,0.00,OVC,,0.00,WeatherDisplay:10.37,2013-02-15 04:51:00,
2013-02-14 23:56:00,22.6,18.5,29.96,ESE,102,0.0,0.0,84,0.00,OVC,,0.00,WeatherDisplay:10.37,2013-02-15 04:56:00,